Location: Unspecified
(0.0000°N, 0.0000°E)
Time: 17:16:02
(UTC+00:00)

Vanguard 2 - Pass Details

Date: 18 December 2018
Orbit: 553 x 2939 km, 32.9° (Epoch: 18 June)

Event Time Altitude Azimuth Distance (km) Brightness Sun altitude
Rises 00:34:09 0° 327° (NNW) 4,347 - -64.9°
Reaches altitude 10° 00:37:05 10° 337° (NNW) 3,679 - -64.6°
Maximum altitude 00:46:04 34° 39° (NE) 3,011 - -63.7°
Exits shadow 00:54:26 20° 86° (E) 4,356 11.3 -62.7°
Drops below altitude 10° 00:59:13 10° 97° (E) 5,421 12.0 -62.1°
Sets 01:04:36 0° 105° (ESE) 6,652 12.6 -61.3°
